Location: The Saddle
(36.8333°N, 80.3417°W)
Time: 04:32:01
(UTC-04:00)

Vanguard 3 - Pass Details

Date: 27 February 2024
Orbit: 510 x 3234 km, 33.3° (Epoch: 24 April)

Event Time Altitude Azimuth Distance (km) Brightness Sun altitude
Rises 19:54:22 0° 237° (WSW) 6,360 12.5 -21.0°
Reaches altitude 10° 19:58:13 10° 234° (SW) 5,604 12.0 -21.7°
Maximum altitude 20:16:24 65° 158° (SSE) 3,455 10.0 -25.3°
Enters shadow 20:26:10 37° 93° (E) 4,196 10.1 -27.2°
